Location: Holmbach
(49.5093°N, 8.8411°E)
Time: 15:32:50
(UTC+00:00)

ALOS 2 - Pass Details

Date: 17 June 2025
Orbit: 630 x 632 km, 97.9° (Epoch: 20 July)

Event Time Altitude Azimuth Distance (km) Brightness Sun altitude
Exits shadow 22:38:22 30° 157° (SSE) 1,145 3.4 -16.3°
Maximum altitude 22:40:32 79° 75° (ENE) 651 2.6 -16.4°
Drops below altitude 10° 22:44:57 10° 348° (NNW) 2,027 6.6 -16.5°
Sets 22:47:10 0° 348° (NNW) 2,940 7.9 -16.6°
